EN

Hourly Weather Ladygi

Today, 5 August, Thursday

Time Temperature Precipitation Wind Pressure Humidity
00:00 +14°C° 0 mm 2 mps 747 mmHg 77%
01:00 +14°C° 0 mm 2 mps 747 mmHg 78%
02:00 +15°C° 0 mm 2 mps 747 mmHg 80%
03:00 +14°C° 0.6 mm 2 mps 747 mmHg 86%
04:00 +14°C° 0.6 mm 2 mps 747 mmHg 91%
05:00 +14°C° 0.6 mm 2 mps 746 mmHg 97%
06:00 +14°C° 3.1 mm 2 mps 746 mmHg 97%
07:00 +15°C° 3.1 mm 2 mps 746 mmHg 98%
08:00 +14°C° 3.1 mm 3 mps 745 mmHg 98%
09:00 +14°C° 2 mm 3 mps 745 mmHg 98%
10:00 +14°C° 2 mm 3 mps 745 mmHg 97%
11:00 +14°C° 2 mm 4 mps 745 mmHg 97%
12:00 +16°C° 0.2 mm 3 mps 745 mmHg 94%
13:00 +17°C° 0.2 mm 3 mps 745 mmHg 91%
14:00 +18°C° 0.2 mm 2 mps 745 mmHg 88%
15:00 +19°C° 0.3 mm 2 mps 745 mmHg 86%
16:00 +19°C° 0.3 mm 2 mps 745 mmHg 84%
17:00 +19°C° 0.3 mm 2 mps 744 mmHg 82%
18:00 +18°C° 0.1 mm 2 mps 744 mmHg 86%
19:00 +17°C° 0.1 mm 2 mps 744 mmHg 91%
20:00 +16°C° 0.1 mm 2 mps 744 mmHg 96%
21:00 +15°C° 0 mm 2 mps 744 mmHg 96%
22:00 +14°C° 0 mm 2 mps 744 mmHg 97%
23:00 +13°C° 0 mm 2 mps 744 mmHg 97%

Tomorrow, 6 August, Friday

Time Temperature Precipitation Wind Pressure Humidity
00:00 +13°C° 0 mm 2 mps 744 mmHg 98%
01:00 +12°C° 0 mm 2 mps 744 mmHg 98%
02:00 +12°C° 0 mm 2 mps 744 mmHg 98%
03:00 +12°C° 0 mm 2 mps 744 mmHg 98%
04:00 +12°C° 0 mm 3 mps 743 mmHg 98%
05:00 +12°C° 0 mm 3 mps 743 mmHg 97%
06:00 +12°C° 0.2 mm 3 mps 743 mmHg 97%
07:00 +13°C° 0.2 mm 3 mps 743 mmHg 97%
08:00 +14°C° 0.2 mm 3 mps 742 mmHg 97%
09:00 +14°C° 1.3 mm 4 mps 742 mmHg 97%
10:00 +15°C° 1.3 mm 4 mps 742 mmHg 97%
11:00 +15°C° 1.3 mm 4 mps 741 mmHg 98%
12:00 +17°C° 1.2 mm 4 mps 741 mmHg 97%
13:00 +16°C° 1.2 mm 5 mps 741 mmHg 97%
14:00 +17°C° 1.2 mm 5 mps 740 mmHg 97%
15:00 +19°C° 0.6 mm 4 mps 740 mmHg 96%
16:00 +20°C° 0.6 mm 4 mps 740 mmHg 94%
17:00 +20°C° 0.6 mm 4 mps 739 mmHg 93%
18:00 +20°C° 0.8 mm 4 mps 739 mmHg 93%
19:00 +20°C° 0.8 mm 4 mps 739 mmHg 94%
20:00 +19°C° 0.8 mm 4 mps 739 mmHg 94%
21:00 +19°C° 0.2 mm 4 mps 739 mmHg 95%
22:00 +18°C° 0.2 mm 3 mps 739 mmHg 96%
23:00 +18°C° 0.2 mm 3 mps 739 mmHg 97%

Day after tomorrow, 7 August, Saturday

Time Temperature Precipitation Wind Pressure Humidity
00:00 +18°C° 0 mm 3 mps 739 mmHg 98%
01:00 +17°C° 0 mm 3 mps 739 mmHg 98%
02:00 +17°C° 0 mm 3 mps 739 mmHg 98%
03:00 +17°C° 0 mm 3 mps 739 mmHg 98%
04:00 +17°C° 0 mm 2 mps 739 mmHg 98%
05:00 +17°C° 0 mm 2 mps 739 mmHg 98%
06:00 +17°C° 0 mm 2 mps 739 mmHg 95%
07:00 +17°C° 0 mm 3 mps 740 mmHg 92%
08:00 +17°C° 0 mm 3 mps 740 mmHg 89%
09:00 +18°C° 0 mm 3 mps 740 mmHg 82%
10:00 +19°C° 0 mm 3 mps 740 mmHg 75%
11:00 +20°C° 0 mm 4 mps 741 mmHg 68%
12:00 +20°C° 0 mm 4 mps 741 mmHg 66%
13:00 +20°C° 0 mm 5 mps 741 mmHg 64%
14:00 +21°C° 0 mm 5 mps 741 mmHg 62%
15:00 +19°C° 0 mm 5 mps 741 mmHg 67%
16:00 +18°C° 0 mm 4 mps 742 mmHg 72%
17:00 +17°C° 0 mm 4 mps 742 mmHg 77%
18:00 +17°C° 0 mm 3 mps 742 mmHg 79%
19:00 +17°C° 0 mm 3 mps 742 mmHg 81%
20:00 +16°C° 0 mm 2 mps 743 mmHg 82%
21:00 +16°C° 0 mm 3 mps 743 mmHg 85%
22:00 +16°C° 0 mm 3 mps 743 mmHg 87%
23:00 +14°C° 0 mm 3 mps 743 mmHg 89%

8 August, Sunday

Time Temperature Precipitation Wind Pressure Humidity
00:00 +16°C° 0.1 mm 3 mps 743 mmHg 90%
01:00 +15°C° 0.1 mm 4 mps 744 mmHg 92%
02:00 +15°C° 0.1 mm 4 mps 744 mmHg 93%
03:00 +14°C° 0 mm 4 mps 744 mmHg 94%
04:00 +14°C° 0 mm 3 mps 745 mmHg 95%
05:00 +13°C° 0 mm 3 mps 745 mmHg 96%
06:00 +14°C° 0 mm 3 mps 745 mmHg 89%
07:00 +17°C° 0 mm 4 mps 746 mmHg 82%
08:00 +18°C° 0 mm 4 mps 746 mmHg 75%
09:00 +20°C° 0 mm 4 mps 746 mmHg 66%
10:00 +21°C° 0 mm 4 mps 746 mmHg 58%
11:00 +23°C° 0 mm 4 mps 747 mmHg 50%
12:00 +25°C° 0 mm 4 mps 747 mmHg 48%
13:00 +25°C° 0 mm 4 mps 747 mmHg 47%
14:00 +26°C° 0 mm 4 mps 747 mmHg 45%
15:00 +26°C° 0 mm 3 mps 747 mmHg 48%
16:00 +26°C° 0 mm 3 mps 747 mmHg 50%
17:00 +26°C° 0 mm 2 mps 747 mmHg 53%
18:00 +24°C° 0 mm 2 mps 747 mmHg 59%
19:00 +23°C° 0 mm 2 mps 748 mmHg 65%
20:00 +20°C° 0 mm 2 mps 748 mmHg 71%
21:00 +19°C° 0 mm 2 mps 748 mmHg 72%
22:00 +19°C° 0 mm 2 mps 748 mmHg 73%
23:00 +18°C° 0 mm 2 mps 748 mmHg 74%

9 August, Monday

Time Temperature Precipitation Wind Pressure Humidity
00:00 +18°C° 0 mm 2 mps 748 mmHg 75%
01:00 +18°C° 0 mm 2 mps 748 mmHg 75%
02:00 +17°C° 0 mm 3 mps 748 mmHg 76%
03:00 +17°C° 0 mm 3 mps 748 mmHg 77%
04:00 +17°C° 0 mm 3 mps 748 mmHg 79%
05:00 +16°C° 0 mm 3 mps 748 mmHg 80%
06:00 +18°C° 0 mm 3 mps 748 mmHg 75%
07:00 +20°C° 0 mm 4 mps 748 mmHg 69%
08:00 +22°C° 0 mm 4 mps 748 mmHg 64%
09:00 +23°C° 0 mm 4 mps 748 mmHg 61%
10:00 +25°C° 0 mm 4 mps 748 mmHg 59%
11:00 +27°C° 0 mm 5 mps 748 mmHg 56%
12:00 +28°C° 0 mm 4 mps 748 mmHg 53%
13:00 +29°C° 0 mm 4 mps 748 mmHg 50%
14:00 +30°C° 0 mm 4 mps 748 mmHg 47%
15:00 +29°C° 0 mm 4 mps 747 mmHg 51%
16:00 +28°C° 0 mm 4 mps 747 mmHg 55%
17:00 +27°C° 0 mm 3 mps 747 mmHg 59%
18:00 +25°C° 0.3 mm 3 mps 747 mmHg 69%
19:00 +23°C° 0.3 mm 2 mps 747 mmHg 79%
20:00 +20°C° 0.3 mm 2 mps 748 mmHg 89%
21:00 +19°C° 0.8 mm 2 mps 748 mmHg 92%
22:00 +18°C° 0.8 mm 2 mps 748 mmHg 95%
23:00 +18°C° 0.8 mm 2 mps 748 mmHg 98%

10 August, Tuesday

Time Temperature Precipitation Wind Pressure Humidity
00:00 +17°C° 0 mm 2 mps 748 mmHg 98%
01:00 +17°C° 0 mm 2 mps 748 mmHg 98%
02:00 +16°C° 0 mm 2 mps 749 mmHg 98%
03:00 +16°C° 0 mm 2 mps 749 mmHg 98%
04:00 +16°C° 0 mm 2 mps 749 mmHg 99%
05:00 +16°C° 0 mm 2 mps 749 mmHg 99%
06:00 +17°C° 0 mm 2 mps 749 mmHg 95%
07:00 +18°C° 0 mm 2 mps 749 mmHg 92%
08:00 +19°C° 0 mm 2 mps 750 mmHg 89%
09:00 +20°C° 0 mm 2 mps 750 mmHg 81%
10:00 +21°C° 0 mm 2 mps 750 mmHg 74%
11:00 +23°C° 0 mm 2 mps 750 mmHg 66%
12:00 +24°C° 0 mm 2 mps 750 mmHg 64%
13:00 +24°C° 0 mm 2 mps 750 mmHg 61%
14:00 +24°C° 0 mm 2 mps 749 mmHg 59%
15:00 +24°C° 0 mm 1 mps 749 mmHg 61%
16:00 +24°C° 0 mm 1 mps 749 mmHg 64%
17:00 +24°C° 0 mm 1 mps 749 mmHg 66%
18:00 +23°C° 0 mm 1 mps 749 mmHg 68%
19:00 +22°C° 0 mm 1 mps 749 mmHg 71%
20:00 +20°C° 0 mm 1 mps 749 mmHg 73%
21:00 +20°C° 0 mm 1 mps 749 mmHg 73%
22:00 +20°C° 0 mm 1 mps 749 mmHg 74%
23:00 +20°C° 0 mm 1 mps 749 mmHg 74%
Show more